Temperature
14 14 15 15 15 15 15 15 15 15 15 15 15 15 15 15 15 15 16 15 15 15 15 15 16 16 16 15 15 15 15 15 15 15 15 15 15 15 15 15 15 15 15
14 14 15 15 15 15 15 15 15 15 15 15 15 15 15 15 15 15 15 15 15 15 15 15 15 15 15 15 15 15 15 15 15 15 15 15 15 15 15 15 14 15 15
14 14 14 14 15 15 15 15 15 15 15 15 15 15 15 15 15 15 15 15 15 15 15 15 15 15 15 15 15 15 15 15 15 15 14 14 14 15 15 15 15 15 14
13 14 14 14 14 14 14 15 15 15 15 15 15 15 15 15 15 15 15 15 15 15 15 15 15 15 15 15 15 15 15 15 15 14 13 13 14 14 14 14 14 14 14
13 13 14 14 14 14 14 14 14 15 15 15 15 15 15 15 15 15 15 15 15 15 15 15 15 15 14 15 15 15 15 15 14 14 13 13 13 14 14 14 14 14 14
13 13 14 14 14 14 14 14 14 14 14 14 15 15 15 15 15 15 15 14 14 14 14 14 14 14 14 14 14 14 14 14 14 13 13 13 13 14 14 14 14 14 14
13 13 13 13 13 14 14 14 14 14 14 14 14 14 14 15 15 14 14 14 14 14 14 14 14 14 14 14 14 14 14 14 13 13 13 13 13 14 14 13 13 13 14
13 13 13 13 13 13 13 13 13 13 14 14 14 14 14 14 14 14 14 14 14 14 14 14 14 14 14 14 14 14 14 14 13 13 13 13 13 13 13 13 13 13 13
13 13 13 13 13 13 13 13 13 13 13 13 14 14 14 14 14 14 14 14 14 14 14 14 14 14 14 14 14 14 13 13 13 13 13 13 13 13 13 13 13 13 13
12 12 12 12 12 13 13 13 13 13 13 13 13 13 13 14 14 14 14 14 14 14 14 14 13 13 13 13 13 13 13 13 12 12 12 12 13 13 13 13 13 13 13
12 12 12 12 12 12 12 12 13 13 13 13 13 13 13 13 13 13 13 13 13 13 13 13 13 13 13 13 13 13 13 12 12 12 12 12 12 12 12 12 12 13 12
11 11 11 12 12 12 12 12 12 12 12 12 12 13 13 13 13 13 13 13 13 13 13 13 13 13 13 13 12 12 12 12 12 12 12 12 12 12 12 12 12 12 12
11 11 11 11 11 11 11 11 12 12 12 12 12 12 12 12 13 13 12 12 12 12 12 12 12 12 12 12 12 12 12 12 11 11 11 12 12 12 12 12 12 12 12
11 11 11 11 11 11 11 11 11 11 11 12 12 12 12 12 12 12 12 12 12 12 12 12 12 12 12 12 12 12 12 11 11 11 11 11 11 11 11 11 11 11 11
11 11 11 11 11 11 11 11 11 11 11 11 11 11 11 11 12 12 12 12 12 12 12 12 12 12 12 12 11 11 11 11 11 11 11 11 11 11 11 11 11 11 11
11 11 11 11 11 10 10 10 10 10 11 11 11 11 11 11 11 11 11 11 11 11 11 11 11 11 11 11 11 11 11 11 11 10 10 11 11 11 11 11 11 11 11
10 11 10 11 10 10 10 10 10 10 10 10 10 10 11 11 11 11 11 11 11 11 11 11 11 11 11 11 11 11 11 10 10 10 10 10 10 10 10 10 10 10 10
10 10 10 10 10 10 10 10 10 10 10 10 10 10 10 10 10 10 10 10 11 11 11 10 10 10 10 10 10 10 10 10 10 10 10 10 10 10 10 10 10 10 10
10 10 10 10 10 10 10 10 10 10 10 10 10 9 10 10 10 10 10 10 10 10 10 10 10 10 10 10 10 10 10 10 10 10 10 10 10 10 10 10 10 10 10
10 10 10 10 10 10 10 9 9 9 9 9 9 9 9 9 9 10 10 10 10 10 10 10 10 10 10 10 10 10 9 9 9 9 9 9 10 10 10 10 9 9 10
9 9 9 9 9 9 9 9 9 9 9 9 9 9 9 9 9 9 9 9 9 9 10 9 9 9 9 9 9 9 9 9 9 9 9 9 9 9 9 9 9 9 9
9 9 9 9 9 9 9 9 8 8 8 8 8 8 8 8 8 9 9 9 9 9 9 9 9 9 9 9 9 8 8 8 8 8 9 9 9 9 9 9 9 9 9
9 9 9 9 8 8 8 8 8 8 8 8 8 8 8 8 8 8 8 8 8 8 8 9 9 9 9 9 8 8 8 8 7 8 8 8 8 8 8 8 9 8 8
8 9 8 8 8 8 8 8 8 8 8 8 8 8 8 8 8 8 8 8 8 8 8 8 8 8 8 8 8 8 8 8 8 7 7 8 8 8 8 8 8 8 8
8 8 8 8 8 8 8 7 7 7 7 7 7 7 7 7 7 7 7 8 8 8 8 8 8 8 8 8 8 8 8 8 8 7 7 7 7 8 8 8 8 8 8
8 8 8 8 7 7 7 7 7 7 7 7 7 7 7 7 7 7 7 7 7 7 7 7 8 7 8 7 7 8 8 8 8 8 7 7 7 7 7 7 7 7 8
Wind_Speed
2 1 3 2 4 4 4 4 4 5 5 5 6 6 7 7 8 8 8 8 9 9 10 10 11 11 11 11 12 12 12 12 12 12 12 12 12 12 12 10 10 13 14
1 2 3 2 4 4 4 4 4 4 4 5 5 5 6 7 8 8 8 8 8 9 10 10 11 11 11 12 12 12 12 12 12 12 11 12 12 12 11 10 9 12 13
1 2 3 2 4 4 4 4 4 4 4 4 4 5 5 6 7 7 7 8 9 9 10 10 10 11 12 12 12 12 12 12 12 10 8 10 11 11 11 11 11 13 12
1 2 2 3 4 4 4 4 3 3 3 3 4 4 5 5 6 7 7 7 8 9 9 10 10 11 12 12 12 12 12 11 10 7 7 8 9 11 11 11 11 12 12
2 2 2 2 3 3 3 3 3 3 3 3 4 4 4 5 6 7 7 7 8 9 9 10 11 11 11 12 12 11 11 11 9 7 8 8 9 11 11 10 11 11 12
1 1 2 1 2 3 3 3 3 3 3 3 3 4 4 4 6 6 7 7 8 9 9 10 10 11 11 11 11 11 11 10 9 8 8 8 8 10 11 11 11 12 12
1 1 2 2 2 2 2 3 3 3 3 3 4 4 3 4 5 6 8 8 7 8 9 9 10 11 11 11 11 11 11 9 7 7 7 7 9 10 11 11 11 12 12
1 0 1 2 1 1 1 2 3 3 3 3 4 4 3 3 4 6 8 8 8 8 9 9 10 10 10 11 11 11 10 8 7 7 7 8 9 9 10 11 11 11 11
0 0 1 2 2 2 2 1 1 2 2 2 3 4 4 4 4 6 8 8 8 8 9 9 9 10 10 10 11 11 9 6 7 6 6 7 8 8 9 9 10 10 10
1 1 1 1 2 2 3 2 2 2 2 2 3 3 4 4 5 6 7 8 8 8 9 9 9 10 11 11 10 10 10 7 6 6 5 6 7 8 9 9 9 9 9
2 2 2 2 1 2 3 3 3 3 2 3 3 3 5 6 6 7 7 8 8 8 9 9 9 10 10 10 10 10 9 7 6 5 5 7 7 8 8 8 9 9 9
4 3 3 2 2 2 2 2 3 2 3 3 3 4 5 5 5 5 6 8 8 9 10 10 10 10 9 8 9 9 6 6 6 5 6 7 8 8 8 8 8 9 9
5 4 3 3 3 3 2 2 2 2 2 2 3 4 4 4 5 5 5 6 7 9 8 9 10 8 7 6 7 7 6 6 5 5 6 7 7 8 8 8 8 9 8
6 5 5 4 3 3 3 2 2 2 1 1 2 4 3 3 3 3 4 5 6 6 6 6 5 6 6 7 7 7 6 5 5 5 6 7 6 7 7 9 9 9 8
6 6 5 4 4 3 3 2 2 2 2 2 2 3 4 3 3 3 3 4 5 6 6 5 6 6 6 6 6 6 6 6 5 5 6 7 6 6 6 8 9 8 8
7 6 5 5 5 4 4 3 3 2 3 2 2 3 4 4 3 3 4 4 4 5 6 6 6 5 5 5 5 5 5 5 5 5 5 6 6 5 5 6 7 8 8
6 5 5 5 5 5 5 4 3 3 3 3 3 4 5 5 4 4 3 4 4 6 6 6 7 5 4 5 5 5 4 4 5 5 4 4 5 5 5 4 6 6 6
5 4 4 3 4 5 4 4 3 3 3 3 3 3 4 5 5 4 4 4 4 5 5 5 5 5 5 4 4 4 3 3 4 5 4 4 4 4 4 4 4 5 6
5 4 3 3 3 4 4 4 3 3 3 3 3 3 3 5 5 4 3 3 5 4 5 6 5 5 5 4 3 3 2 3 3 4 4 4 4 3 4 5 5 4 4
3 3 3 3 3 3 3 3 2 2 2 2 2 3 4 4 5 4 3 4 4 4 4 5 6 5 5 4 4 3 1 2 2 3 3 4 4 4 4 4 4 4 4
2 3 3 3 3 3 3 3 3 3 2 2 2 3 3 4 5 4 3 4 4 4 5 6 5 6 5 4 3 3 1 1 1 1 2 3 4 4 4 4 4 4 4
3 3 3 3 3 4 3 3 3 2 2 2 2 2 3 4 4 4 5 4 4 4 6 7 6 5 4 4 3 3 2 2 2 2 2 3 4 4 4 4 4 4 4
3 3 3 4 4 4 4 3 3 2 2 2 2 2 3 4 4 4 5 5 5 5 6 7 8 6 6 4 3 3 3 4 3 3 4 3 4 4 4 4 5 5 5
3 3 3 3 4 3 3 4 5 4 4 4 3 3 3 3 4 4 5 5 5 5 7 8 7 6 7 6 4 2 2 2 3 3 4 4 4 4 4 4 5 6 5
2 2 3 3 3 3 3 4 5 5 4 3 3 3 3 3 3 4 4 5 5 5 6 7 7 6 6 6 5 3 2 2 3 3 3 4 4 4 4 5 4 5 6
0 1 2 3 3 3 4 4 5 5 5 4 4 3 3 3 3 4 4 4 5 5 6 6 6 7 6 6 5 5 4 3 4 3 3 4 4 4 4 4 4 5 5
Wind_Direction
137 115 111 131 124 129 121 114 111 114 126 132 133 139 148 150 147 143 142 143 143 139 133 130 128 127 126 124 121 118 113 111 108 104 102 102 101 102 101 103 106 98 96
139 135 116 133 130 137 133 125 116 114 129 137 140 145 147 150 151 151 149 147 144 141 135 133 131 127 125 123 120 117 113 112 110 107 108 106 104 105 103 93 85 97 98
120 135 143 137 133 129 130 124 121 116 122 135 144 145 149 152 154 153 153 152 146 142 136 134 133 129 127 125 121 117 116 117 117 121 134 120 112 109 107 102 99 103 103
104 135 151 134 141 132 128 123 124 125 121 131 143 144 153 159 162 159 152 154 150 143 138 134 134 133 132 129 124 121 121 120 125 147 131 118 116 116 116 112 109 108 106
113 125 123 118 148 145 141 138 139 147 143 147 148 155 162 170 169 162 156 151 145 142 139 138 137 137 135 132 130 127 126 126 136 146 120 119 116 120 121 118 115 111 107
114 118 103 91 154 147 145 158 163 166 172 175 168 167 175 178 176 166 154 146 141 141 145 143 140 142 139 137 136 134 133 137 149 131 124 124 120 121 122 119 117 110 107
98 112 124 96 157 163 160 168 176 188 191 194 195 182 178 177 174 166 154 147 145 146 145 145 143 144 143 140 138 138 138 144 142 129 126 123 119 121 123 121 115 109 104
59 27 157 134 121 146 160 189 197 204 207 206 206 193 183 181 169 159 153 151 151 155 153 150 149 147 146 142 138 137 140 151 140 132 128 122 117 122 125 122 118 114 109
17 345 262 181 155 143 145 167 190 204 220 220 217 200 189 185 177 170 162 158 158 158 156 154 154 155 148 144 141 137 137 151 149 136 131 123 121 126 128 126 122 119 115
253 254 250 216 194 198 193 191 202 209 203 218 218 203 200 192 183 174 172 166 165 164 158 155 151 150 146 142 141 140 142 159 151 142 138 126 126 133 131 130 128 125 121
253 246 251 250 225 223 214 198 198 196 195 204 208 193 200 206 195 184 177 168 167 165 161 157 150 142 138 140 140 143 156 163 153 145 137 126 139 140 135 135 134 129 124
253 245 239 241 239 225 220 212 221 216 210 212 212 204 210 208 194 181 164 166 166 165 162 157 148 146 152 152 148 156 162 164 154 147 132 133 147 146 142 141 138 134 126
249 246 238 235 234 226 226 226 236 232 223 221 209 203 206 198 182 168 167 166 171 169 166 156 160 165 167 162 162 166 162 160 156 147 140 143 154 152 149 146 140 136 132
244 242 237 230 233 232 236 238 236 233 232 226 210 193 192 190 184 177 172 174 176 178 169 168 168 166 166 166 166 161 158 156 155 146 131 136 144 151 151 149 143 141 140
246 242 236 229 227 229 229 239 234 229 233 221 205 189 189 189 193 183 176 170 174 172 168 164 162 162 162 161 162 160 159 156 152 148 135 124 131 139 149 153 150 147 147
249 246 242 231 227 225 222 223 233 231 220 206 204 197 190 187 185 186 183 174 173 175 173 166 161 161 160 156 157 159 160 154 154 150 140 126 125 133 143 155 157 155 154
259 250 244 235 231 226 224 224 228 225 214 201 202 201 194 185 181 181 185 182 177 175 170 163 159 160 159 157 157 156 156 157 159 153 146 140 133 123 121 148 163 162 160
260 254 249 242 235 227 224 226 226 219 210 198 197 198 190 182 181 179 180 184 174 171 165 163 163 162 163 165 157 150 152 157 167 162 154 148 148 147 128 121 148 167 172
254 246 246 242 236 230 224 223 224 214 206 195 188 186 187 182 178 174 173 176 173 171 172 167 167 166 165 158 148 140 153 163 169 170 167 163 161 162 159 134 131 133 167
249 247 246 236 233 229 222 220 215 212 208 193 190 194 188 182 175 167 160 168 169 172 173 168 162 160 161 152 134 118 126 156 168 171 174 170 168 173 179 172 170 153 150
231 231 233 228 219 210 210 213 213 217 211 202 193 191 192 187 177 169 167 168 175 179 176 170 159 156 156 146 137 121 104 140 163 169 184 183 179 184 186 185 190 184 171
217 217 218 220 217 209 206 206 214 219 218 211 197 197 192 197 190 183 178 175 179 181 176 173 170 164 161 166 164 155 169 198 207 211 197 197 198 192 193 195 196 198 193
222 222 216 218 218 210 205 196 192 193 205 203 196 203 207 204 198 195 185 177 181 187 183 182 183 179 175 178 185 175 181 201 186 196 202 203 206 204 200 199 201 203 205
237 232 228 225 219 215 206 197 194 200 208 219 214 206 209 209 203 199 193 186 186 192 191 189 190 189 182 181 190 211 219 168 188 188 200 211 216 217 211 206 204 204 207
243 231 228 222 218 217 211 207 206 212 215 212 207 199 201 206 207 200 197 191 189 194 195 195 188 193 193 189 189 187 185 186 209 208 208 205 219 226 221 219 213 206 205
259 238 228 218 222 218 210 211 212 214 208 200 202 200 202 204 210 207 198 194 196 197 196 197 194 199 200 195 197 196 196 194 199 210 217 209 218 223 225 227 222 213 204
Height
1521 1521 1522 1523 1523 1524 1525 1526 1526 1527 1528 1528 1529 1529 1530 1530 1531 1532 1532 1533 1533 1534 1534 1535 1535 1535 1536 1536 1536 1537 1537 1538 1538 1539 1539 1539 1540 1541 1541 1542 1542 1542 1542
1520 1521 1521 1522 1523 1524 1525 1525 1526 1527 1527 1528 1529 1529 1530 1530 1531 1532 1532 1533 1534 1534 1535 1535 1535 1536 1536 1537 1537 1538 1538 1539 1539 1540 1540 1541 1541 1542 1542 1543 1543 1544 1544
1520 1520 1521 1522 1523 1523 1524 1525 1526 1526 1527 1528 1528 1529 1530 1530 1531 1532 1532 1533 1534 1534 1535 1535 1536 1536 1537 1537 1538 1538 1539 1540 1540 1541 1542 1543 1543 1543 1544 1544 1544 1545 1545
1519 1520 1520 1521 1522 1523 1524 1524 1525 1526 1526 1527 1528 1528 1529 1530 1530 1531 1532 1533 1533 1534 1535 1535 1536 1536 1537 1538 1538 1539 1540 1540 1541 1542 1544 1544 1544 1544 1544 1545 1545 1546 1546
1519 1520 1520 1521 1522 1522 1523 1524 1524 1525 1526 1526 1527 1528 1528 1529 1530 1530 1531 1532 1533 1533 1534 1535 1535 1536 1537 1538 1539 1539 1540 1541 1542 1543 1544 1545 1545 1545 1545 1546 1546 1547 1547
1519 1519 1519 1520 1521 1522 1522 1523 1524 1524 1525 1525 1526 1526 1527 1528 1529 1530 1530 1531 1532 1533 1534 1535 1535 1536 1537 1538 1539 1540 1540 1541 1543 1544 1545 1545 1546 1546 1546 1547 1547 1548 1548
1518 1518 1518 1519 1520 1520 1521 1522 1522 1523 1523 1524 1525 1525 1526 1527 1528 1529 1529 1530 1531 1532 1533 1534 1535 1536 1537 1538 1539 1540 1541 1542 1543 1544 1545 1546 1546 1546 1547 1547 1548 1548 1549
1516 1517 1517 1518 1518 1519 1520 1520 1520 1521 1522 1522 1523 1524 1525 1525 1526 1527 1528 1529 1530 1531 1532 1533 1534 1536 1537 1538 1539 1539 1541 1542 1543 1545 1545 1546 1546 1547 1547 1548 1548 1549 1549
1515 1515 1515 1516 1516 1517 1518 1518 1519 1519 1520 1521 1521 1522 1523 1524 1525 1526 1527 1528 1529 1530 1531 1533 1534 1535 1536 1537 1538 1539 1541 1542 1544 1545 1546 1546 1546 1547 1547 1548 1548 1549 1549
1513 1513 1513 1514 1514 1515 1516 1516 1517 1517 1518 1518 1519 1520 1521 1522 1523 1524 1525 1526 1527 1529 1530 1532 1533 1534 1535 1537 1538 1539 1541 1542 1544 1544 1545 1546 1546 1547 1547 1548 1548 1549 1549
1511 1511 1511 1511 1512 1512 1513 1514 1514 1515 1515 1516 1517 1517 1518 1520 1521 1522 1523 1524 1526 1528 1529 1530 1532 1533 1535 1536 1537 1539 1540 1542 1543 1544 1545 1545 1546 1546 1547 1548 1548 1549 1549
1509 1509 1509 1509 1510 1510 1511 1511 1512 1512 1513 1513 1514 1515 1516 1517 1518 1520 1521 1523 1524 1526 1528 1529 1530 1532 1534 1535 1536 1538 1539 1541 1542 1543 1544 1544 1545 1546 1546 1547 1548 1548 1549
1507 1507 1507 1507 1507 1508 1508 1509 1509 1509 1510 1510 1511 1512 1513 1514 1516 1517 1519 1521 1522 1524 1526 1527 1529 1530 1532 1533 1535 1536 1538 1540 1541 1542 1543 1543 1545 1545 1546 1547 1547 1548 1548
1504 1504 1504 1504 1505 1505 1506 1506 1506 1507 1507 1507 1508 1509 1510 1512 1513 1514 1516 1518 1520 1522 1523 1525 1526 1528 1530 1532 1533 1535 1536 1538 1540 1541 1541 1542 1543 1545 1545 1546 1547 1547 1548
1501 1501 1501 1502 1502 1502 1503 1503 1504 1504 1504 1504 1505 1506 1507 1509 1510 1512 1513 1515 1517 1519 1521 1523 1524 1526 1528 1530 1531 1533 1535 1537 1538 1539 1540 1541 1542 1544 1545 1545 1546 1547 1547
1498 1498 1499 1499 1499 1500 1500 1500 1501 1502 1502 1502 1503 1503 1505 1506 1507 1509 1511 1513 1514 1516 1518 1520 1522 1524 1526 1528 1530 1531 1533 1535 1536 1538 1539 1540 1541 1542 1543 1544 1545 1546 1546
1495 1495 1496 1496 1496 1497 1497 1497 1498 1499 1499 1500 1500 1501 1502 1503 1505 1506 1508 1510 1512 1514 1516 1518 1520 1522 1524 1526 1528 1529 1531 1533 1534 1536 1537 1538 1539 1541 1542 1543 1544 1544 1545
1492 1492 1492 1493 1493 1494 1495 1495 1495 1496 1497 1497 1498 1499 1500 1501 1502 1504 1505 1508 1510 1512 1514 1515 1517 1520 1522 1524 1525 1527 1529 1531 1532 1534 1535 1537 1538 1539 1540 1540 1542 1543 1543
1489 1489 1489 1490 1490 1491 1492 1492 1493 1493 1494 1495 1495 1496 1497 1499 1500 1501 1503 1505 1507 1509 1511 1513 1514 1517 1519 1521 1523 1525 1527 1528 1530 1531 1533 1535 1536 1537 1538 1539 1540 1540 1541
1486 1486 1487 1487 1488 1488 1489 1490 1490 1491 1491 1492 1493 1494 1495 1496 1497 1499 1500 1502 1504 1507 1508 1510 1512 1514 1517 1519 1521 1522 1525 1526 1527 1529 1530 1532 1533 1534 1535 1536 1538 1538 1539
1483 1483 1484 1484 1485 1485 1486 1486 1487 1487 1488 1489 1490 1491 1492 1493 1494 1496 1498 1499 1501 1504 1505 1507 1509 1511 1514 1516 1518 1520 1522 1524 1525 1526 1528 1529 1530 1531 1533 1534 1535 1536 1537
1481 1481 1481 1482 1482 1482 1482 1483 1484 1485 1486 1487 1487 1488 1489 1490 1492 1493 1495 1496 1499 1501 1503 1504 1507 1508 1510 1513 1515 1518 1520 1523 1522 1523 1524 1526 1527 1529 1530 1531 1532 1533 1534
1479 1479 1479 1479 1479 1479 1480 1480 1481 1482 1483 1484 1485 1485 1487 1488 1489 1490 1492 1493 1496 1498 1500 1502 1504 1505 1507 1510 1513 1515 1517 1518 1519 1520 1521 1523 1524 1525 1526 1528 1529 1530 1531
1476 1476 1477 1477 1476 1476 1477 1477 1478 1479 1479 1481 1482 1483 1484 1485 1486 1488 1489 1491 1493 1495 1497 1499 1501 1503 1505 1506 1509 1512 1514 1515 1517 1517 1518 1519 1521 1522 1523 1524 1526 1527 1528
1474 1474 1474 1474 1474 1474 1474 1475 1475 1476 1477 1479 1479 1480 1481 1482 1483 1485 1486 1488 1490 1492 1494 1496 1498 1500 1502 1503 1505 1507 1509 1511 1513 1514 1514 1516 1517 1518 1519 1521 1522 1523 1524
1472 1472 1472 1471 1471 1472 1472 1472 1473 1474 1475 1476 1476 1477 1478 1479 1480 1481 1483 1485 1487 1489 1491 1493 1494 1496 1498 1500 1502 1504 1506 1507 1508 1510 1511 1512 1513 1514 1515 1516 1517 1519 1520